Regional Weather Roundup
Issued by NWS Binghamton, NY

Home | Current Version | Previous Version | Text Only | Print | Product List | Glossary On
Versions: 1 2 3 4 5 6 7 8 9 10 11 12 13 14 15 16 17 18 19 20 21 22 23 24 25 26 27 28
000
ASUS41 KBGM 260010
RWRBGM

REGIONAL WEATHER ROUNDUP
NATIONAL WEATHER SERVICE BINGHAMTON NY
800 PM EDT SAT MAR 25 2017

Note: "fair" indicates few or no clouds below 12,000 feet with no
significant weather and/or obstructions to visibility.

* = Station(s) that does not report precipitation, such as rain,
snow, etc, also no thunder or fog.

NYZ009-015>018-022>025-036-037-044>046-055>057-062-260100
...Central New York...

CITY           SKY/WX    TMP DP  RH WIND       PRES   REMARKS
Binghamton     CLOUDY    36  35  96 NE3       30.30R
Cortland       CLOUDY    36  36 100 N5        30.34R FOG     WCI  32
Dansville      CLOUDY    37  34  89 SE6       30.35R WCI  32
Elmira         CLOUDY    37  33  85 NE5       30.34R WCI  33
Seneca Falls   CLOUDY    37  37 100 CALM      30.39R
Ithaca         FOG       34  34 100 NW5       30.35R VSB 1/8 WCI  30
Hamilton       CLOUDY    34  34 100 CALM      30.34R VSB 1/4
Monticello     CLOUDY    37  36  93 E6        30.31R VSB 3/4 WCI  33
Norwich        CLOUDY    36  36 100 N3        30.34R
Penn Yan       FOG       35  32  88 CALM      30.36R VSB 3/4
Rome           CLOUDY    36  35  96 SE5       30.39R WCI  32
Sidney         CLOUDY    37  37 100 NE5       30.33R WCI  34
Syracuse       CLOUDY    37  36  96 CALM      30.36R
$$

PAZ038>040-043-044-047-048-072-260100
...Northeast Pennsylvania...

CITY           SKY/WX    TMP DP  RH WIND       PRES   REMARKS
Hazleton       CLOUDY    45  39  81 N7        30.28R
Scranton       CLOUDY    43  42  97 SE5       30.29R
$$
&&
KEY
WCI = Wind Chill Index
VSB = Visibility
HX  = Heat Index
$$




USA.gov is the U.S. government's official web portal to all federal, state and local government web resources and services.